Activity Log for Mar, 08 2020

Back to Activity Log Search


Incident Time Nature Address
20F026718 00:03:00 ATL 45XX WOODWAY DR
20F026711 00:03:28 30 TRAFFIC STOP FAIRFIELD AVE & W PACKARD AVE
20F026712 00:03:34 25HS HIT SKIP S ILLINOIS RD & W JEFFERSON BLVD
20F026713 00:07:55 30 TRAFFIC STOP N CLINTON ST & ELIZABETH ST
20F026714 00:08:56 30 TRAFFIC STOP LIMA RD & PROGRESS RD
20F026715 00:09:36 44LM 22XX HOBSON DR
20F026716 00:10:26 99 NARCOTICS 35XX CHEVIOT DR
20F026717 00:11:27 40A AUDIBLE 11XX S THOMAS RD
20F026719 00:14:33 48 SUSPICIOUS S HARRISON ST & GRAND ST
20F026720 00:14:48 30 TRAFFIC STOP WELLS ST & WALLYWOOD AVE
20F026721 00:15:30 129 60XX BRANDONWOOD LN
20F026722 00:16:50 51 THEFT 28XX E STATE BLVD
20F026723 00:18:03 30 TRAFFIC STOP LIMA RD & W COOK RD
20F026726 00:20:45 33 DISABLED VEH CHERRY LN & W JEFFERSON BLVD
20F026724 00:22:02 44LM 60XX BUNT DR
20F026725 00:23:33 30 TRAFFIC STOP E STATE BLVD & HOBSON RD
20F026727 00:24:11 37 PARKING VIOL 66XX SALGE DR
20F026728 00:26:07 30 TRAFFIC STOP 25XX TERRACE RD
20F026729 00:26:32 22I JUV INVEST 81XX MANOR DR
20F026730 00:27:57 43 DISTURBANCE 5XX W BERRY ST
20F026731 00:36:15 44LM 12XX SHERMAN BLVD
20F026732 00:42:42 55 FIGHT 61XX N CLINTON ST
20F026733 00:44:27 911 HANG UP 13XX PUTNAM ST
20F026735 00:46:23 40I INTRUSION 34XX MCKINNIE AVE
20F026734 00:47:15 30 TRAFFIC STOP W COLISEUM BLVD & SHERMAN BLVD
20F026736 00:47:49 30 TRAFFIC STOP HILLEGAS RD & BUTLER RD
20F026738 00:47:57 48,35 44XX WALKERS RDG
20F026737 00:48:33 30 TRAFFIC STOP 311XX I 69 NB
20F026739 00:51:12 30 TRAFFIC STOP 35XX ST JOE CENTER RD
20F026742 00:54:59 27 RECKLESS DRI LIMA RD & W COLISEUM BLVD
20F026740 00:55:19 30 TRAFFIC STOP 16XX HOBSON RD
20F026741 00:57:00 48 SUSPICIOUS FAIRFIELD AVE & W CREIGHTON AVE
20F026744 00:59:23 14 WARRANT 69XX E SR 930
20F026743 01:01:37 30 TRAFFIC STOP COLDWATER RD & N CLINTON ST
20F026745 01:06:11 41,36 58XX COLDWATER RD
20F026746 01:06:48 44LP 34XX FELICIAN ST
20F026747 01:07:56 44LM 28XX SOUTHWAY DR
20F026748 01:12:25 30 TRAFFIC STOP GOSHEN RD & W COLISEUM BLVD
20F026749 01:17:25 30 TRAFFIC STOP 312XX I 69 NB
20F026750 01:17:44 48,35 38XX ILLINOIS RD
20F026751 01:18:09 30 TRAFFIC STOP 55XX STELLHORN RD
20F026752 01:18:21 33,34 ILLINOIS RD & I 69 305 NB ON RAMP
20F026753 01:18:48 43 DISTURBANCE 34XX FELICIAN ST
20F026754 01:21:38 30 TRAFFIC STOP 26XX MARTIN LUTHER DR
20F026755 01:25:27 48 SUSPICIOUS 56XX S ANTHONY BLVD
20F026760 01:30:00 30 TRAFFIC STOP W COLISEUM BLVD & HATFIELD RD
20F026757 01:30:05 51,ATTEMPTED 19XX BROADWAY
20F026756 01:30:49 30 TRAFFIC STOP 16XX HOBSON RD
20F026758 01:31:19 30 TRAFFIC STOP 16XX HOBSON RD
20F026759 01:32:23 48,36 10XX S CLINTON ST
20F026761 01:35:10 30 TRAFFIC STOP BROADWAY & W CREIGHTON AVE
20F026762 01:35:57 43 DISTURBANCE 9XX E LEWIS ST
20F026763 01:36:45 48,35 67XX COVINGTON RD
20F026766 01:39:12 43 DISTURBANCE 58XX BUNT DR
20F026765 01:39:25 1 MEET 7XX BROADWAY
20F026764 01:40:59 30 TRAFFIC STOP MAPLECREST RD & VANCE AVE
20F026767 01:42:03 113 SHOTS FIRED 83XX LAKESIDE CT
20F026768 01:44:47 30 TRAFFIC STOP 62XX MAPLECREST RD
20F026770 01:46:58 40A AUDIBLE 35XX E STATE BLVD
20F026769 01:47:32 30 TRAFFIC STOP S LAFAYETTE ST & E WAYNE ST
20F026771 01:50:20 99 NARCOTICS 72XX LAKERIDGE DR
20F026772 01:51:13 25 PD ACCIDENT S HARRISON ST & W JEFFERSON BLVD
20F026773 01:55:56 30 TRAFFIC STOP 8XX E COLISEUM BLVD
20F026774 01:59:07 30 TRAFFIC STOP 35XX ST JOE CENTER RD
20F026775 03:02:46 96JO 17XX CORTLAND AVE
20F026776 03:03:29 44LM 10XX TULIP TREE RD
20F026777 03:20:21 48,36 16XX MAGNOLIA LN
20F026779 03:37:16 40 ALARM 2XX W WAYNE ST
20F026780 03:38:32 43 DISTURBANCE 40XX COLDWATER RD
20F026783 03:45:06 ATL 58XX COLDWATER RD
20F026782 03:46:59 65T SUICIDE THR 19XX ELLEN AVE
20F026781 03:48:34 48 SUSPICIOUS W JEFFERSON BLVD & FREEMAN ST
20F026785 03:57:04 19 ESCORT E BERRY ST & S CALHOUN ST
20F026784 04:01:26 30 TRAFFIC STOP W CREIGHTON AVE & S HARRISON ST
20F026786 04:12:05 55 FIGHT 26XX CORVALIS AVE
20F026787 04:12:28 EMS 1XX E MASTERSON AVE
20F026788 04:15:33 911 HANG UP 11XX W WASHINGTON CENTER RD
20F026789 04:19:46 25HS HIT SKIP WARSAW ST & E DEWALD ST
20F026790 04:27:12 34 TRAFF HAZARD W US 30 & KROEMER RD
20F026791 04:27:54 30 TRAFFIC STOP ILLINOIS RD & S SCOTT RD
20F026792 04:33:12 113 SHOTS FIRED WARSAW ST & E DEWALD ST
20F026793 04:34:51 48,36 7XX E STATE BLVD
20F026794 04:36:57 48 SUSPICIOUS 20XX JESSIE AVE
20F026795 04:37:16 40A AUDIBLE 42XX COLDWATER RD
20F026797 04:42:01 43 DISTURBANCE 6XX LILLIAN AVE
20F026796 04:42:30 25 PD ACCIDENT S LAFAYETTE ST & E WILLIAMS ST
20F026798 05:04:32 103 UNWANTED 57XX CHALLENGER PKWY
20F026799 05:14:24 30 TRAFFIC STOP 314XX I 69 NB
20F026800 05:16:51 63 CONTACT 34XX WEBSTER ST
20F026801 05:25:35 46 DOMESTIC 81XX MANOR DR
20F026802 05:34:54 61 RAPE 23XX ST LOUIS AVE
20F026803 05:35:07 911 HANG UP 11XX W WASHINGTON CENTER RD
20F026804 05:39:37 40A AUDIBLE 11XX HAYDEN ST
20F026805 05:53:10 46,96 9XX CATALINA AVE
20F026806 05:56:39 911 HANG UP 11XX W WASHINGTON CENTER RD
20F026807 06:00:04 48 SUSPICIOUS 22XX HOLTON AVE
20F026808 06:03:11 46,96 28XX INDIANA AVE
20F026809 06:29:29 48 SUSPICIOUS OLIVER ST & E CREIGHTON AVE
20F026810 06:37:34 25 PD ACCIDENT 25XX JOHN ST
20F026811 06:43:04 30 TRAFFIC STOP 15XX W WASHINGTON CENTER RD
20F026812 06:44:49 46 DOMESTIC 7XX DOLPHIN DR
20F026813 07:15:57 48 SUSPICIOUS 41XX S ANTHONY BLVD
20F026814 07:20:16 33,34 E WASHINGTON BLVD & S ANTHONY BLVD
20F026815 07:24:52 41,36 6XX E TABER ST
20F026816 07:42:09 40A AUDIBLE 26XX GOSHEN RD
20F026817 07:47:44 30 TRAFFIC STOP 12XX E DUPONT RD
20F026818 07:54:11 41 MAN DOWN 1XX W BAKER ST
20F026819 07:54:38 55 FIGHT 10XX HIGH ST
20F026820 07:58:53 48,36 105XX MAYSVILLE RD
20F026822 08:07:15 44LM 41XX SOUTHWAYNE AVE
20F026821 08:07:51 46 DOMESTIC 21XX BAYVIEW DR
20F026824 08:08:10 65T SUICIDE THR 3XX RIVER ROCK PASS
20F026823 08:44:17 30 TRAFFIC STOP LIMA RD & WAYSIDE DR
20F026825 08:50:01 48,36 13XX MICHIGAN AVE
20F026827 08:55:43 48,35 73XX IDEAL AVE
20F026826 08:57:53 41 MAN DOWN 4XX W DEWALD ST
20F026828 09:06:17 15 ASSIST 21XX O DAY RD
20F026830 09:26:49 46 DOMESTIC 18XX HOWELL ST
20F026829 09:27:05 30 TRAFFIC STOP COLDWATER RD & E COOK RD
20F026831 09:30:34 911 HANG UP 74XX S ANTHONY BLVD
20F026832 09:30:56 46,96 16XX TIMBERLAKE TRL
20F026833 10:01:07 25HS HIT SKIP 35XX AVONDALE DR
20F026834 10:01:59 51 THEFT 72XX MIAHQUEAH CT
20F026835 10:05:51 48 SUSPICIOUS W BUTLER ST & S CALHOUN ST
20F026837 10:11:07 911 HANG UP 17XX HOBSON RD
20F026838 10:11:21 40A AUDIBLE 25XX COMMERCIAL RD
20F026836 10:11:33 63 CONTACT E WASHINGTON BLVD & GLASGOW AVE
20F026839 10:22:13 43 DISTURBANCE 21XX BAYVIEW DR
20F026840 10:23:03 30 TRAFFIC STOP W COOK RD & HONEYWELL DR
20F026843 10:27:27 30 TRAFFIC STOP MEYER RD & OXFORD ST
20F026841 10:27:58 43 DISTURBANCE 57XX KELSO LN
20F026842 10:31:52 48 SUSPICIOUS 6XX E TILLMAN RD
20F026847 10:35:06 108 FOLLOWUP 8XX OAKLAWN CT
20F026846 10:41:39 16,97 76XX ST JOE RD
20F026845 10:45:37 51 THEFT 5XX MADISON ST
20F026844 10:46:08 40A AUDIBLE 2XX LANDAU RUN
20F026848 10:50:06 63 CONTACT 2XX W SUPERIOR ST
20F026849 11:00:17 23,35 VAND VEH 25XX WINCH ST
20F026850 11:02:38 40A AUDIBLE 3XX E COLISEUM BLVD
20F026852 11:06:44 18 WORK TRAFFIC W JEFFERSON BLVD & ARDMORE AVE
20F026851 11:06:56 33,34 W COLISEUM BLVD & EXECUTIVE BLVD
20F026853 11:12:46 40A AUDIBLE 4XX E WASHINGTON BLVD
20F026854 11:16:46 43 DISTURBANCE 29XX GOSHEN RD
20F026871 11:18:43 24 MISSING PERS 15XX SPY RUN AVE
20F026855 11:20:29 37 PARKING VIOL 99XX NORTHBROOK VALLEY DR
20F026856 11:20:57 20 PROBLEM UNK 7XX W DEWALD ST
20F026858 11:31:02 46 DOMESTIC 22XX HOBSON RD
20F026857 11:33:39 51 THEFT 61XX W JEFFERSON BLVD
20F026859 11:38:00 48 SUSPICIOUS HOLTON AVE & DREXEL AVE
20F026861 11:41:29 911 HANG UP 35XX LAKE AVE
20F026860 11:43:21 102,TX THREATS 42XX ROBINWOOD DR
20F026862 11:44:15 108 FOLLOWUP 48XX WHEATRIDGE RD
20F026864 11:50:02 25 PD ACCIDENT 29XX TONAWANDA DR
20F026863 11:51:42 48,36 18XX W JEFFERSON BLVD
20F026867 11:55:29 48 SUSPICIOUS 19XX OAKLAND ST
20F026866 11:56:16 911 HANG UP 48XX EXECUTIVE BLVD
20F026865 11:57:36 46,96 49XX TIMBERLAND DR
20F026884 12:01:14 ATL BROADWAY & TAYLOR ST
20F026869 12:03:28 39R STOLEN RECO 8XX OAKLAWN CT
20F026868 12:04:24 40H HOLDUP ALRM 25XX SPY RUN AVE
20F026870 12:10:25 1 MEET BEAVER AVE & W RUDISILL BLVD
20F026872 12:20:03 129 53XX KYLE RD
20F026873 12:21:58 27 RECKLESS DRI SPRING ST & SHERMAN BLVD
20F026874 12:26:21 25 PD ACCIDENT S CLINTON ST & E JEFFERSON BLVD
20F026875 12:26:41 43 DISTURBANCE 59XX SAWMILL WOODS CT
20F026876 12:30:26 46,96 49XX WOODWAY DR
20F026877 12:36:18 30 TRAFFIC STOP E COOK RD & WESTFIELD DR
20F026883 12:37:04 63 CONTACT 51XX DELAWARE AVE
20F026880 12:38:44 63 CONTACT 66XX FERNWOOD AVE
20F026878 12:39:00 25HS HIT SKIP 33XX S CALHOUN ST
20F026879 12:39:07 63 CONTACT ILLINOIS RD & I 69 305 NB ON RAMP
20F026881 12:43:19 129 75XX LAKERIDGE DR
20F026882 12:44:00 26 PI ACCIDENT 41XX N CLINTON ST
20F026885 12:47:57 103 UNWANTED 46XX COVENTRY PKWY
20F026886 12:48:08 46 DOMESTIC 39XX N CLINTON ST
20F026887 12:52:54 99 NARCOTICS 22XX HOLTON AVE
20F026908 12:57:32 46,96 27XX TYLER AVE
20F026907 12:58:08 63 CONTACT 2XX W FOURTH ST
20F026893 12:59:33 16,97 59XX BIRCHDALE DR
20F026888 13:03:01 48 SUSPICIOUS 61XX STELLHORN RD
20F026889 13:05:03 25HS HIT SKIP 34XX N WASHINGTON RD
20F026894 13:06:33 1 MEET 74XX COLD SPRINGS BLVD
20F026890 13:11:53 30 TRAFFIC STOP 70XX COLDWATER RD
20F026891 13:14:18 102,TX THREATS 4XX W WILLIAMS ST
20F026892 13:21:18 63 CONTACT 42XX SOUTHWAYNE AVE
20F026895 13:30:31 30 TRAFFIC STOP 303XX I 69 NB
20F026896 13:33:31 50IP BURG I/P 9XX MCKEE ST
20F026897 13:36:18 96JO 48XX S ANTHONY BLVD
20F026900 13:46:49 33,34 E STATE BLVD & N COLISEUM BLVD
20F026899 13:47:28 43 DISTURBANCE 17XX APPLE GLEN BLVD
20F026901 13:50:07 39U UNAUTHORIZE 7XX PELLSTON CT
20F026903 13:52:08 15 ASSIST 28XX ST LOUIS AVE
20F026902 13:54:19 43,62 27XX LYKEWAY CT
20F026904 13:58:26 51 THEFT 8XX E COLISEUM BLVD
20F026905 13:59:39 37 PARKING VIOL 26XX BLK WEBSTER ST
20F026906 14:01:52 96IP 7XX E PAULDING RD
20F026909 14:15:52 43 DISTURBANCE 83XX BRIDGEWAY CIR
20F026910 14:17:17 30 TRAFFIC STOP HOLTON AVE & HURD ST
20F026911 14:19:25 46 DOMESTIC 4XX LILLIAN AVE
20F026912 14:21:33 63 CONTACT 14XX W DUPONT RD
20F026914 14:22:20 33,34 W JEFFERSON BLVD & GETZ RD
20F026913 14:23:06 43 DISTURBANCE 60XX W JEFFERSON BLVD
20F026915 14:31:04 30 TRAFFIC STOP BAXTER ST & SOUTHPARK DR
20F026916 14:31:30 48 SUSPICIOUS ELLEN AVE & SPRUNGER AVE
20F026917 14:34:41 25 PD ACCIDENT PLAZA DR & CAPITOL AVE
20F026918 14:36:04 43,62 45XX BOWSER AVE
20F026919 14:38:47 43 DISTURBANCE 2XX E RUDISILL BLVD
20F026920 14:42:30 40A AUDIBLE 61XX CHERRY HILL PKWY
20F026921 14:45:42 103 UNWANTED 47XX COLDWATER RD
20F026923 14:46:51 46 DOMESTIC 68XX IDEAL AVE
20F026922 14:47:27 30 TRAFFIC STOP 42XX S LAFAYETTE ST
20F026924 14:47:28 63 CONTACT 27XX POINSETTE DR
20F026938 14:50:02 99 NARCOTICS 75XX SADDLEBACK CT
20F026925 14:54:15 25HS HIT SKIP 27XX CAMBRIDGE BLVD
20F026926 14:55:29 41 MAN DOWN 3XX E PAULDING RD
20F026927 14:57:47 123 LEO/CEDARVI 150XX SR 1
20F026928 14:59:01 43 DISTURBANCE 66XX BLUFFTON RD
20F026929 15:01:06 40A AUDIBLE 68XX COVINGTON CREEK TRL
20F026930 15:08:24 99 NARCOTICS 21XX EDEN ST
20F026931 15:11:55 43 DISTURBANCE 75XX DECATUR RD
20F026932 15:14:06 30 TRAFFIC STOP BOWSER AVE & BAXTER ST
20F026934 15:17:21 33J LOCKED OUT 7XX E COLISEUM BLVD
20F026935 15:17:34 40A AUDIBLE 45XX COVENTRY PKWY
20F026937 15:19:09 44LM 48XX WARSAW ST
20F026933 15:19:10 14S SERVING WAR 33XX COLLEGIATE CT
20F026936 15:19:19 40P PANIC ALARM 50XX DECATUR RD
20F026939 15:28:09 108 FOLLOWUP 17XX APPLE GLEN BLVD
20F026942 15:28:50 48 SUSPICIOUS BAXTER ST & BOWSER AVE
20F026940 15:28:53 46,96 5XX FIFTH ST
20F026941 15:29:34 30 TRAFFIC STOP WARSAW ST & GUMPPER AVE
20F026945 15:30:04 911 HANG UP 33XX ROBINWOOD DR
20F026943 15:30:26 14S SERVING WAR 29XX ROLSTON ST
20F026944 15:31:17 103 UNWANTED 10XX BROADWAY
20F026946 15:36:41 51,35 4XX DALGREN AVE
20F026949 15:37:46 40A AUDIBLE 17XX HINTON DR
20F026947 15:37:57 30 TRAFFIC STOP S ANTHONY BLVD & MCKINNIE AVE
20F026948 15:38:14 30 TRAFFIC STOP SPEEDWAY DR & GRAINGER DR
20F026950 15:41:01 41 MAN DOWN 8XX S HARRISON ST
20F026951 15:47:17 40A AUDIBLE 57XX LANCASHIRE CT
20F026954 15:49:35 22I JUV INVEST 27XX E STATE BLVD
20F026953 15:49:42 48 SUSPICIOUS 17XX APPLE GLEN BLVD
20F026952 15:50:24 30 TRAFFIC STOP S ANTHONY BLVD & E RUDISILL BLVD
20F026955 15:56:39 25 PD ACCIDENT W DUPONT RD & DAWSONS CREEK BLVD
20F026956 16:03:09 46 DOMESTIC 37XX WEBSTER ST
20F026957 16:06:54 46 DOMESTIC ALEXANDER ST & E PONTIAC ST
20F026958 16:08:04 30 TRAFFIC STOP TYLER AVE & W STATE BLVD
20F026959 16:09:58 51,35 100XX LIMA RD
20F026960 16:15:21 41,36 19XX N CLINTON ST
20F026961 16:19:36 40P PANIC ALARM 74XX DISALLE BLVD
20F026963 16:20:39 39U UNAUTHORIZE 18XX GETZ RD
20F026962 16:21:44 48 SUSPICIOUS 32XX LEROY AVE
20F026964 16:32:10 96JO 80XX COMMUNITY LN
20F026968 16:33:12 46 DOMESTIC 8XX N ANTHONY BLVD
20F026965 16:34:34 46 DOMESTIC 82XX BRIDGEWAY CIR
20F026966 16:35:50 103 UNWANTED 14XX BAXTER ST
20F026967 16:36:45 46,62 27XX LYKEWAY CT
20F026969 16:44:15 EMS 42XX BEAVER AVE
20F026970 16:51:08 26 PI ACCIDENT 64XX ST JOE RD
20F026971 17:03:11 45 NEIGHBORHOOD 9XX HERMAN ST
20F026988 17:07:30 37 PARKING VIOL 11XX DODGE AVE
20F026973 17:11:44 25 PD ACCIDENT S CALHOUN ST & E BAKER ST
20F026972 17:12:02 14S SERVING WAR 68XX RAINTREE RD
20F026974 17:21:22 30 TRAFFIC STOP TAYLOR ST & PHENIE ST
20F026975 17:21:58 30 TRAFFIC STOP HARVARD BLVD & CAMBRIDGE BLVD
20F026976 17:24:36 65A SUICIDE ATT 25XX RIVER COVE TRL
20F026977 17:25:23 46,96 44XX TAMARACK DR
20F026978 17:25:46 25 PD ACCIDENT AVONDALE DR & DECATUR RD
20F026984 17:26:11 51 THEFT 5XX E COLISEUM BLVD
20F026979 17:27:32 46,96 33XX CONGRESS AVE
20F026980 17:27:52 33J LOCKED OUT 39XX TAYLOR ST
20F026981 17:29:39 30 TRAFFIC STOP 28XX CAMBRIDGE BLVD
20F026983 17:29:45 43 DISTURBANCE 32XX WEBSTER ST
20F026982 17:30:39 43 DISTURBANCE 75XX SOUTHTOWN XING
20F026986 17:35:09 ATL 28XX CASTLE DR
20F026989 17:35:14 63 CONTACT 43XX PLAZA DR
20F026985 17:37:16 103 UNWANTED 19XX BROADWAY
20F026987 17:39:42 25HS HIT SKIP 59XX ILLINOIS RD
20F027005 17:47:01 22I JUV INVEST 48XX DWIGHT DR
20F026991 17:47:25 28 DUI 36XX MCCORMICK AVE
20F026990 17:49:29 51 THEFT 75XX SOUTHTOWN XING
20F026992 17:55:43 43 DISTURBANCE 7XX FREDERICK ST
20F026993 18:03:57 103 UNWANTED 14XX BAXTER ST
20F026994 18:07:30 41 MAN DOWN HIGH ST & OSAGE ST
20F026995 18:08:28 39U UNAUTHORIZE 50XX MCCLELLAN ST
20F026996 18:10:18 43 DISTURBANCE 26XX VERNON AVE
20F026997 18:13:05 34 TRAFF HAZARD MAPLECREST RD & ROTHMAN RD
20F026998 18:19:32 103 UNWANTED 14XX BAXTER ST
20F027000 18:25:30 51JO 9XX S THOMAS RD
20F026999 18:26:33 30 TRAFFIC STOP E SHERWOOD TER & WEISSER PARK AVE
20F027001 18:26:44 48 SUSPICIOUS 14XX TAYLOR ST
20F027002 18:31:19 46 DOMESTIC 17XX HOWELL ST
20F027003 18:36:12 66 MENTALLY ILL 31XX W COLISEUM BLVD
20F027004 18:38:54 43 DISTURBANCE 65XX GOODRICH RD
20F027006 18:46:46 113 SHOTS FIRED W PONTIAC ST & S HARRISON ST
20F027007 18:51:51 26 PI ACCIDENT ST JOE CENTER RD & WHEELOCK RD
20F027008 18:53:57 44FW 20XX SPRING ST
20F027010 18:54:58 22RN RUNAWAY 40XX DALEWOOD DR
20F027009 19:01:19 103 UNWANTED 64XX W JEFFERSON BLVD
20F027011 19:08:33 30 TRAFFIC STOP S ANTHONY BLVD & COLERICK ST
20F027012 19:13:51 96JO 32XX ST JOE CENTER RD
20F027022 19:16:01 99 NARCOTICS 49XX OLD MAYSVILLE RD
20F027014 19:19:25 22N CHILD NEGLE 5XX PIERCE AVE
20F027013 19:19:43 50JO 19XX PINE ST
20F027015 19:29:01 30 TRAFFIC STOP S CLINTON ST & E RUDISILL BLVD
20F027018 19:29:08 101 OPEN DOOR 7XX W DEWALD ST
20F027016 19:29:56 55 FIGHT W CREIGHTON AVE & FAIRFIELD AVE
20F027017 19:31:44 46,96 33XX REED ST
20F027019 19:34:10 48,36 41XX LIMA RD
20F027021 19:37:20 911 HANG UP 9XX GOSHEN AVE
20F027023 19:38:34 ATL 48XX WOODWAY DR
20F027026 19:49:04 24 MISSING PERS 5XX E COOK RD
20F027024 19:51:24 113 SHOTS FIRED 47XX COVINGTON RD
20F027025 19:51:35 16,97 26XX HAZELWOOD AVE
20F027027 19:57:27 46,96 16XX EMERSON AVE
20F027028 19:58:23 44 NUISANCE 43XX WINDING WAY DR
20F027029 19:59:08 113 SHOTS FIRED ARDMORE AVE & KNOLL RD
20F027031 20:01:05 40 ALARM 65XX COVINGTON RD
20F027030 20:02:05 48,36 35XX LOGAN AVE
20F027032 20:08:18 30 TRAFFIC STOP REED ST & E PONTIAC ST
20F027033 20:09:59 43 DISTURBANCE 31XX WELLS ST
20F027034 20:11:53 911 HANG UP 7XX FREDERICK ST
20F027037 20:15:22 96 BATTERY 29XX JOHN ST
20F027035 20:15:46 48,36 23XX SYCAMORE HILLS DR
20F027039 20:15:59 46 DOMESTIC LIBERTY ST & BEGUE ST
20F027036 20:19:13 43 DISTURBANCE 66XX KLINE ST
20F027038 20:19:15 25 PD ACCIDENT 19XX W WALLEN RD
20F027040 20:20:08 30 TRAFFIC STOP E COOK RD & CRANBERRY RD
20F027041 20:21:17 48 SUSPICIOUS 14XX GREENE ST
20F027043 20:23:01 46 DOMESTIC 17XX TRINITY BLVD
20F027042 20:23:54 46,62 31XX ABBOTT ST
20F027044 20:25:57 1 MEET 28XX ST LOUIS AVE
20F027045 20:27:38 46 DOMESTIC 8XX RIDGEWOOD DR
20F027046 20:34:19 46,96 63XX ROXANNE DR
20F027048 20:38:29 22N CHILD NEGLE 46XX COLDWATER RD
20F027047 20:39:14 43 DISTURBANCE 45XX STANDISH DR
20F027051 20:43:00 46 DOMESTIC 7XX E TILLMAN RD
20F027050 20:46:13 46,96 83XX LAKESIDE CT
20F027049 20:47:31 97A LOST ITEMS 6XX FLORENCE AVE
20F027052 20:55:21 30 TRAFFIC STOP HILLEGAS RD & W COLISEUM BLVD
20F027053 20:57:45 66V MENTAL VIOL 57XX DARTMOUTH DR
20F027054 21:00:26 48 SUSPICIOUS VANCE AVE & CHELMSFORD PL
20F027056 21:01:57 41 MAN DOWN 14XX HIGH ST
20F027057 21:02:24 48 SUSPICIOUS 39XX E STATE BLVD
20F027060 21:06:47 63 CONTACT 33XX DIPLOMAT DR
20F027063 21:09:39 22I JUV INVEST 23XX GAY ST
20F027058 21:09:46 80 CIVIL INVEST 6XX W FAIRFAX AVE
20F027059 21:09:48 99 NARCOTICS 49XX OLD MAYSVILLE RD
20F027061 21:22:58 45 NEIGHBORHOOD CHARLOTTE AVE & EADE AVE
20F027062 21:27:09 30 TRAFFIC STOP W JEFFERSON BLVD & I 69 302 SB ON
20F027064 21:33:30 1 MEET 23XX W MAIN ST
20F027065 21:36:13 30 TRAFFIC STOP N CLINTON ST & FERNWOOD AVE
20F027066 21:40:03 65A SUICIDE ATT 18XX FOSTER CT
20F027072 21:41:33 22RN RUNAWAY 21XX CHERI CT
20F027067 21:42:22 30 TRAFFIC STOP LOWER HUNTINGTON RD & IDEAL AVE
20F027068 21:46:04 33 DISABLED VEH 70XX ILLINOIS RD
20F027069 21:46:21 30 TRAFFIC STOP LIMA RD & W DUPONT RD
20F027070 21:52:52 46 DOMESTIC 13XX SINCLAIR ST
20F027071 21:57:50 30 TRAFFIC STOP LIMA RD & W WALLEN RD
20F027073 22:11:23 129 30XX SHADY HOLLOW PL
20F027074 22:13:47 EMS 58XX TURTLE CREEK DR
20F027076 22:16:30 99 NARCOTICS 12XX N COLISEUM BLVD
20F027075 22:18:10 30 TRAFFIC STOP E RUDISILL BLVD & S CALHOUN ST
20F027078 22:22:54 48 SUSPICIOUS 6XX KIMBERTON DR
20F027077 22:23:40 30 TRAFFIC STOP E PONTIAC ST & S CLINTON ST
20F027079 22:32:00 30 TRAFFIC STOP S CALHOUN ST & E MAPLE GROVE AVE
20F027080 22:40:17 46,62 68XX RAINTREE RD
20F027081 22:41:32 30 TRAFFIC STOP S LAFAYETTE ST & AGNES ST
20F027082 22:43:47 63 CONTACT 26XX COVINGTON POINTE TRL
20F027083 22:47:11 43 DISTURBANCE 46XX STANDISH DR
20F027084 22:48:32 40 ALARM 8XX S CALHOUN ST
20F027085 22:51:25 48 SUSPICIOUS S HARRISON ST & W MAPLE GROVE AVE
20F027086 22:56:59 111D DOG 23XX W COLISEUM BLVD
20F027087 22:58:15 129 16XX ST JOE RIVER DR
20F027089 22:58:55 25 PD ACCIDENT N CLINTON ST & E FOURTH ST
20F027088 22:59:29 30 TRAFFIC STOP FAIRFIELD AVE & W PAULDING RD
20F027090 23:05:13 113 SHOTS FIRED 57XX BRIGHTON DR
20F027092 23:09:32 40A AUDIBLE 88XX W JEFFERSON BLVD
20F027093 23:10:14 66 MENTALLY ILL 15XX W WASHINGTON CENTER RD
20F027091 23:12:48 15 ASSIST 14XX W WASHINGTON CENTER RD
20F027095 23:13:46 108 FOLLOWUP 29XX ROLSTON ST
20F027094 23:14:48 30 TRAFFIC STOP 36XX E WASHINGTON BLVD
20F027096 23:20:17 30 TRAFFIC STOP S CALHOUN ST & W HAWTHORNE ST
20F027097 23:24:22 55 FIGHT 42XX BLUFFTON RD
20F027098 23:26:34 30 TRAFFIC STOP E WAYNE TRACE & WABASH AVE
20F027099 23:32:20 40A AUDIBLE 2XX W WAYNE ST
20F027100 23:35:06 30 TRAFFIC STOP E COLISEUM BLVD & VANCE AVE
20F027101 23:35:43 43 DISTURBANCE 35XX E TILLMAN RD
20F027102 23:39:48 40P PANIC ALARM 30XX KILLARNEY PL
20F027103 23:40:41 30 TRAFFIC STOP QUEEN ST & MANFORD ST
20F027104 23:41:17 103 UNWANTED 18XX FOX POINT TRL
20F027105 23:45:58 129 MILLSTONE DR & SWEET CIDER RD
20F027106 23:46:11 129 MILLSTONE DR & SWEET CIDER RD
20F027107 23:47:44 30 TRAFFIC STOP 49XX LIMA RD
20F027108 23:54:58 101 OPEN DOOR 65XX DRAKES BAY RUN
20F027109 23:57:38 30 TRAFFIC STOP LIMA RD & W WASHINGTON CENTER RD
20F027110 23:58:09 46 DOMESTIC 23XX SMITH ST